Weather in Belgo

Russia / Khabarovsk Krai     50°38′59″N   137°15′27″E
temp.,
°C
wind,
m/s
gust,
m/s
humid.,
%
clouds,
%
prec.,
mm/h
press.,
hPa
HPBL,
m
20 january, thu
thu2001:00−25sse0110099 0.0 102810
04:00−26s11100100 0.1 102813
07:00−26sse11100100 0.1 102913
10:00−24s119897 0.1 103079
13:00−19ssw1190100 0.0 1029321
16:00−17ssw1188100 0.1 1029278
19:00−24ssw1110072 0.0 103110
22:00−27sse1110088 0.0 10319
21 january, fri
fri2101:00−28sse1110098 0.0 103214
04:00−28sse11100100 0.0 103321
07:00−28sse11100100 0.0 103334
10:00−26sse249899 0.1 1034157
13:00−22s3492100 0.0 1033400
16:00−20s3492100 0.1 1032433
19:00−25se1110078 0.0 103216
22:00−27se1110087 0.0 103219
22 january, sat
sat2201:00−28se11100100 0.0 103217
04:00−28se11100100 0.0 103222
07:00−28se1110099 0.0 103227
10:00−26sse239999 0.1 1032120
13:00−21s3592100 0.0 1031398
16:00−20s3692100 0.0 1030436
19:00−25se2110057 0.0 103025
22:00−27ese2110068 0.0 103023
23 january, sun
sun2301:00−28se1110099 0.0 103024
04:00−28se11100100 0.1 102927
07:00−28se11100100 0.0 102926
10:00−26sse1399100 0.1 1029111
13:00−21s2591100 0.0 1027398
16:00−20s2491100 0.0 1026416
19:00−26se1110049 0.0 102613
22:00−28se1110082 0.0 102716
24 january, mon
mon2401:00−29se1110098 0.0 102716
04:00−29se11100100 0.0 102720
07:00−29se11100100 0.0 102727
10:00−26sse2399100 0.1 1027116
13:00−22s3592100 0.0 1027408
16:00−20s3692100 0.0 1026448
19:00−25se2110063 0.0 102721
22:00−27ese2210083 0.0 102732